DELTA 1 DEB, 10643

Orbit data source: Space-Track

DELTA 1 DEB, 10643 is space debris in SSO originally from a launch on Thu, 29 Jul 1976 UTC launched from the Air Force Western Test Range (AFWTR). Debris objects in space refer to the collection of defunct objects orbiting the Earth. Examples of debris include non-operational satellites, rocket bodies, and fragments generated from explosions, collisions, or faulty payload assembly.

Loading next visibility...
Identifier
10643, 1976-077D
Orbit
SSO
Country
Flag of USUS
Related business
Manufacturer
Unknown
Mission
Spacecraft
Bus & Motor
Unknown
Mass
Unknown
Launch date (UTC)
1976-07-29 (50 years ago)
Launch vehicle
Unknown
Launch site
Air Force Western Test Range (AFWTR)
Object type
Payload
Rocket body
Debris
Shape & HBR
Unknown shape, 0.1 m
Radar Cross Section
Medium (>0.1 m² and <1 m²)

Expand to show TLE details & history
Last TLE update: 3 days ago

TLE from 3 days ago
0 DELTA 1 DEB
1 10643U 76077D   26168.16207189  .00000058  00000-0  10408-2 0  9996
2 10643 102.1234 128.9752 0171188   8.7327  11.0808 12.10374589204381
Epoch: 2026-06-17T03:53Z
TLE epoch observation values (Epoch: 2026-06-17T03:53:23.011Z)
Latitude
19.73359°
Longitude
160.80804°
Altitude
1,502.301 km
Speed
7.174 km/s
True Right ascension
08h 18m 18s
True Declination
19° 38' 06"
Sunlit
Object was in daylight at epoch
Visualization orbit readout
Latitude
Unknown
Longitude
Unknown
Altitude
Unknown
Speed
Unknown
Apparent Right ascension
Unknown
Apparent Declination
Unknown
Sunlit
N/A
Visualization observer readout
Local Sidereal Time
23:39:25
Azimuth
Unknown
Elevation
Unknown
Doppler factor
Unknown
Orbital elements
Apogee altitude
1,769.493 km
Perigee altitude
1,495.233 km
Semi-major axis
8,010.5 km
Eccentricity
0.01712
Inclination
102.1234°
RAAN
128.9752°
Arg. of periapsis
8.7327°
True anomaly
11.4659°
Mean anomaly
11.0808°
Eccentric anomaly
11.27253°
Mean motion
3.02729 °/min
Orbital period
118.92 mins
BSTAR
0.0010408
Loading maneuver chart data...
Computing Atmospheric mass density...
Loading historical data...
Loading historical data...
Loading historical data...
Loading historical data...
Loading historical data...
Loading historical data...
Loading historical data...

Documentation

Showing up to 5 results
|